Regional Weather Roundup
Issued by NWS Portland, ME

Home | Current Version | Previous Version | Text Only | Print | Product List | Glossary On
Versions: 1 2 3 4 5 6 7 8 9 10 11 12 13 14 15 16 17 18 19 20 21 22 23 24 25 26 27 28 29 30 31 32 33 34 35 36 37 38 39 40 41 42 43 44 45 46 47 48 49 50
000
ASUS41 KGYX 251110
RWRGYX
WEATHER ROUNDUP FOR MAINE AND NEW HAMPSHIRE
NATIONAL WEATHER SERVICE GRAY ME
700 AM EDT TUE JUL 25 2017

MEZ002-005-006-010-012-015-018-020-021-024-026-027-029-251200-
MAINE

CITY           SKY/WX    TMP DP  RH WIND       PRES   REMARKS
PORTLAND       LGT RAIN  57  54  89 VRB7      30.07R
SANFORD          N/A     57  54  89 N8        30.07R
BAR HARBOR     CLOUDY    56  53  90 N8        30.05
WISCASSET      CLOUDY    58  54  86 CALM      30.08R
ROCKLAND       CLOUDY    57  52  83 N10       30.05R
FRYEBURG       CLOUDY    56  55  97 CALM      30.10R
LEWISTONAUBURN LGT RAIN  56  54  93 N7        30.08R
AUGUSTA        CLOUDY    57  52  83 N8        30.09R
WATERVILLE     CLOUDY    57  54  89 N6        30.06R
BANGOR         PTSUNNY   58  54  86 N8        30.08R
GREENVILLE       N/A    N/A N/A N/A MISG      30.08R
MILLINOCKET    CLOUDY    57  55  93 CALM      30.09S
HOULTON        CLOUDY    57  54  89 CALM      30.07R
PRESQUE ISLE   CLOUDY    57  53  86 N3        30.10R
FRENCHVILLE    CLOUDY    52  45  77 N3        30.10R
CARIBOU        CLOUDY    57  49  74 N5        30.08R
$$

NHZ002-005-008-009-011-012-014-251200-
NEW HAMPSHIRE

CITY           SKY/WX    TMP DP  RH WIND       PRES   REMARKS
PORTSMOUTH     CLOUDY    57  54  90 N7        30.05R
ROCHESTER      CLOUDY    56  53  90 N5        30.06R
NASHUA         LGT RAIN  57  55  93 NW6       30.07R
MANCHESTER     CLOUDY    58  52  80 N6        30.05R
CONCORD        CLOUDY    57  54  89 NW5       30.08R
LACONIA        CLOUDY    57  53  86 E7        30.08R
PLYMOUTH       CLOUDY    55  52  90 CALM      30.08R
BERLIN         LGT RAIN  54  50  86 CALM      30.12R
WHITEFIELD     CLOUDY    54  50  86 N7        30.09R
JAFFREY        CLOUDY    54  54 100 VRB5      30.08R
KEENE          CLOUDY    56  54  93 CALM      30.08R
LEBANON        RAIN      56  55  97 N3        30.08R FOG
MT WASHINGTON  DRZL/FOG  39  39 100 E7          N/A  VSB 1/8
$$

VTZ005-007-008-251200-
VERMONT

CITY           SKY/WX    TMP DP  RH WIND       PRES   REMARKS
ST JOHNSBURY     N/A     54  54 100 MISG      30.09R
MONTPELIER     CLOUDY    53  53 100 CALM      30.13R
BURLINGTON     LGT RAIN  58  54  86 CALM      30.08R
$$

MAZ007-012-024-CTZ003-RIZ002-NYZ038-NYZ072-251200-
SOUTHERN NEW ENGLAND AND NY

CITY           SKY/WX    TMP DP  RH WIND       PRES   REMARKS
BOSTON         CLOUDY    57  55  93 N8        30.05R
WORCESTER      CLOUDY    53  51  93 NE7       30.06R FOG
NANTUCKET      CLOUDY    61  59  93 N17       29.99S
PROVIDENCE     CLOUDY    59  58  96 NE10      30.04R
HARTFORD       DRIZZLE   57  56  96 N5        30.06R
ALBANY         CLOUDY    58  54  86 CALM      30.05R
NEW YORK CITY  PTSUNNY   64  59  83 E5        30.02R
$$

ANZ081-ANZ082-ANZ150-NHZ014-MEZ023>029-251200-
COASTAL MARINE OBSERVATIONS

STATION/POSITION TIME  TEMP    WIND        PRES    WAVE
                       AIR SEA DIR/SP/G            HT/PER
                 (UTC) (F)     (DEG/KT/KT) (MB)    (FT/S)
MOUNT DESERT ROC 1100   52                 1016.4R
MATINICUS ROCK   1000   53     360/ 16/ 18 1016.1R
ISLE OF SHOALS   1000   58      10/ 15/ 17 1016.8R
JEFFREYS LEDGE   1006      63                N/A     8/ 8
CASHES LEDGE BUO 0950   55 60              1015.6    8/ 8
GEORGES BANK BUO 0950   62 62              1011.1    7/ 8
$$

.............KEY..............
   WCI - WIND CHILL
   TC  - TEMPERATURE IN CELSIUS
   VSB - VISIBILITY IN MILES
   HX  - HEAT INDEX
   FAIR- INDICATES FEW OR NO CLOUDS BELOW 12,000 FT, WITH NO
         SIGNIFICANT WEATHER AND/OR OBSTRUCTIONS TO VISIBILITY.





USA.gov is the U.S. government's official web portal to all federal, state and local government web resources and services.